Probability
0 0 0 0 0 0 0 0 0 0 0 0 0 1 2 1 1 2 5 7 8 8 7 6 7 6 5 5 5 8 10 12 13 14 13 12 11 11 11 12 11 11 9 8
0 0 0 0 0 0 0 0 0 0 0 0 0 1 1 1 0 1 3 6 7 7 7 8 8 8 8 6 6 8 11 13 14 15 15 14 13 13 13 13 12 11 9 8
0 0 0 0 0 0 0 0 0 0 0 0 0 0 1 1 0 0 2 5 6 5 6 9 11 11 11 8 6 8 11 14 15 16 16 16 15 15 14 13 13 11 8 6
0 0 0 0 0 0 0 0 0 0 0 0 0 0 0 0 0 0 1 4 5 4 5 8 12 13 12 9 7 9 12 14 16 16 16 16 16 16 14 13 12 10 7 6
0 0 0 0 0 0 0 0 0 0 0 0 0 0 0 0 0 0 1 3 4 5 5 7 11 13 12 11 10 12 14 16 16 16 15 15 15 15 14 12 11 8 6 6
0 0 0 0 0 0 0 0 0 0 0 0 0 0 0 0 0 0 1 3 5 6 6 7 10 12 14 15 15 17 19 19 18 16 14 14 14 14 13 12 9 7 5 5
0 0 0 0 0 0 0 0 0 0 0 0 0 0 0 0 0 0 2 4 6 7 8 9 10 13 16 18 19 22 23 23 21 17 14 13 13 12 11 10 9 6 5 5
0 0 0 0 0 0 0 0 0 0 0 0 0 0 0 0 0 0 1 3 5 7 8 10 11 13 16 18 20 23 26 26 22 18 14 12 11 10 9 10 8 6 4 4
0 0 0 0 0 0 0 0 0 0 0 0 0 0 0 1 1 1 2 3 4 5 7 10 11 13 15 17 19 23 27 29 25 20 16 13 11 10 10 10 8 5 4 4
0 0 0 0 0 0 0 0 0 0 0 0 0 0 1 2 2 3 4 5 5 5 7 9 11 12 15 18 20 23 28 30 28 24 20 15 12 13 14 13 10 7 7 7
0 0 0 0 0 0 0 0 0 0 0 0 0 0 1 2 3 3 4 6 7 7 7 8 10 13 16 19 22 25 27 28 28 27 23 20 18 17 18 17 13 11 11 10
0 0 0 0 0 0 0 0 0 0 0 0 0 0 0 1 3 4 5 8 10 10 10 10 12 16 19 24 27 27 26 27 28 27 24 22 21 20 20 20 17 15 13 12
0 0 0 0 0 0 0 0 0 0 0 0 0 0 1 1 3 5 7 9 11 12 13 14 16 21 26 29 30 29 26 25 25 25 23 21 21 21 21 21 19 17 15 13
0 0 0 0 0 0 0 0 0 0 0 0 0 1 2 2 4 6 7 8 10 13 15 18 21 25 29 31 30 28 26 25 25 25 23 22 21 22 23 22 20 18 16 14
0 0 0 0 0 0 0 0 0 0 0 0 0 1 2 4 6 7 8 9 10 13 15 19 22 25 27 29 30 29 27 28 30 31 28 25 23 24 24 24 21 19 17 16
0 0 0 0 0 0 0 0 0 0 0 0 0 0 2 5 7 9 10 11 11 11 13 17 21 23 24 27 31 32 32 33 35 35 32 28 25 25 25 24 22 20 18 18
0 0 0 0 0 0 0 0 0 0 1 1 1 1 3 6 9 11 12 12 10 10 11 15 18 20 22 24 28 31 33 35 35 34 32 29 27 27 26 24 23 22 21 20
0 0 0 0 0 0 0 0 0 1 2 2 2 2 4 7 10 11 11 11 10 10 12 14 16 16 19 21 24 26 28 30 32 31 29 28 29 31 29 27 27 27 26 24
1 1 0 0 0 0 0 0 0 1 2 3 4 4 6 9 11 11 10 10 10 10 13 16 17 16 19 23 25 23 22 24 26 26 24 25 28 30 30 30 31 31 30 29
2 1 0 0 0 0 0 0 0 1 2 5 7 8 10 12 13 13 11 10 10 11 13 18 20 21 24 26 26 23 20 21 23 23 21 22 25 27 28 29 30 31 31 31
1 1 0 0 0 0 0 0 1 3 6 9 12 13 15 16 15 14 14 14 14 13 15 21 25 27 28 28 27 24 21 21 24 24 24 24 26 28 27 27 27 28 30 30
0 0 0 1 1 1 1 1 2 6 10 13 15 15 16 16 14 14 15 17 16 15 17 25 31 32 30 28 27 26 23 23 24 25 26 29 31 30 28 27 25 27 29 30
1 1 2 2 4 5 5 3 3 7 11 12 14 14 13 12 11 12 15 18 19 18 21 28 33 34 30 26 25 25 25 24 23 24 28 32 34 32 30 28 26 27 29 29
3 3 4 6 7 7 6 4 3 4 8 12 12 11 10 10 10 12 15 19 21 21 24 28 32 32 29 26 25 25 24 24 23 25 28 32 33 31 29 27 26 25 25 25
4 4 5 8 7 6 6 5 3 4 8 12 12 10 8 9 12 14 17 21 22 22 24 28 30 30 29 29 27 26 25 25 24 24 26 29 30 28 25 23 21 20 18 16
3 4 5 6 6 6 6 5 4 5 8 11 11 9 7 9 13 16 19 21 22 22 23 28 30 29 30 31 29 27 26 26 24 22 24 26 29 27 22 18 17 14 12 10
Wind_Speed
8 9 9 6 5 3 2 3 2 2 4 6 5 3 6 9 9 9 8 8 8 8 8 7 7 7 7 6 6 6 5 5 4 3 3 2 3 2 1 1 1 0 0 0
10 11 6 4 5 5 6 6 4 3 3 5 4 4 5 8 10 9 8 8 9 9 9 9 8 8 8 8 7 7 6 6 5 3 2 1 1 2 1 1 1 0 0 0
13 6 7 8 9 9 8 6 4 2 4 6 5 7 7 8 8 8 8 9 9 9 10 10 10 9 9 8 8 6 6 6 5 4 4 3 3 2 2 2 2 1 0 1
11 6 9 11 10 10 7 4 4 5 6 3 4 3 6 8 9 10 10 10 10 10 10 10 10 10 9 9 8 7 7 6 5 5 4 4 3 2 2 2 1 1 1 1
9 9 11 12 10 9 3 3 4 6 6 5 5 6 4 6 7 9 10 10 10 10 10 11 10 10 9 9 8 8 7 6 6 6 5 5 4 3 2 2 2 2 2 1
7 6 9 8 6 7 6 6 5 7 8 8 3 6 1 3 2 5 8 9 9 9 10 10 10 9 9 9 8 8 8 7 7 6 6 6 4 3 3 3 2 3 2 2
11 10 8 7 9 10 10 9 7 8 7 5 2 6 1 4 2 1 5 8 9 9 9 10 10 10 10 9 9 8 8 8 8 7 6 6 5 4 4 4 3 3 2 2
14 14 12 10 12 10 13 13 8 6 6 3 6 5 2 4 2 2 4 6 8 9 9 9 10 10 10 10 10 9 9 8 8 7 7 6 5 4 4 4 3 2 2 1
11 11 10 8 8 11 12 12 9 9 8 7 5 3 3 3 3 4 5 6 8 8 9 9 9 9 10 10 10 10 9 8 8 7 7 6 5 4 3 3 3 3 2 2
8 9 10 8 7 5 9 9 8 10 9 9 7 8 4 5 4 5 6 7 7 8 9 9 8 8 8 9 9 9 9 8 7 7 7 6 6 5 4 4 3 3 2 2
9 10 10 11 12 12 10 12 10 9 9 10 8 4 2 3 3 4 6 6 7 8 8 8 8 8 8 8 8 9 9 8 7 7 6 5 5 5 5 4 4 4 3 3
9 9 10 11 6 6 10 12 13 11 10 10 10 3 6 3 3 3 4 5 6 6 7 7 7 7 8 8 8 7 7 7 7 7 6 6 5 5 5 4 4 4 4 4
7 8 10 11 10 9 10 11 12 12 10 11 12 5 7 4 3 3 4 5 5 5 5 6 6 6 7 7 6 6 6 6 7 7 7 6 5 5 5 4 4 4 4 4
6 10 12 14 10 11 13 12 12 14 12 12 13 8 4 3 3 3 3 4 6 6 6 5 5 5 5 5 6 6 6 6 6 6 6 6 6 5 5 4 4 4 4 4
6 10 11 10 8 9 12 13 14 16 15 14 11 10 6 3 2 3 3 5 6 6 6 5 5 4 4 5 5 5 5 5 6 6 6 6 6 5 5 5 5 4 4 4
4 7 9 11 10 10 12 13 14 15 14 14 12 9 3 2 2 3 3 5 6 5 5 5 5 5 4 4 4 4 5 5 5 6 6 5 5 5 5 5 5 5 4 4
6 7 10 11 11 12 15 13 13 13 12 12 12 7 3 4 3 3 4 5 5 5 4 4 4 4 4 4 4 4 4 4 5 5 6 6 6 6 5 5 5 5 5 5
6 7 8 10 11 17 8 6 10 11 9 8 6 4 4 4 3 3 3 4 4 4 4 4 4 3 3 4 4 4 4 5 5 5 6 6 5 5 5 5 5 5 5 5
8 8 8 10 13 12 7 5 7 9 9 7 7 5 4 3 4 3 2 2 2 3 3 3 3 4 3 3 4 4 4 5 5 5 5 5 5 5 5 5 5 5 5 5
8 9 10 11 13 13 7 4 3 7 10 3 4 4 4 5 7 3 2 1 1 1 2 2 3 3 3 3 3 4 5 5 5 5 5 5 5 6 6 5 5 4 5 5
10 10 13 13 13 8 0 1 5 10 3 1 1 2 3 4 4 2 0 0 1 1 1 2 3 3 3 3 3 4 4 5 5 4 5 5 5 6 6 5 5 5 5 5
9 9 11 11 13 8 2 3 4 2 4 1 1 1 2 2 2 2 1 1 1 1 1 2 3 3 3 3 4 4 5 4 4 4 5 5 5 5 5 5 5 5 5 6
7 6 5 6 4 3 2 1 2 2 2 2 2 1 2 2 2 2 2 2 2 2 2 2 3 3 3 3 4 4 4 4 4 5 5 5 5 5 5 5 6 5 6 5
4 4 5 5 3 1 0 1 2 3 3 3 2 2 2 3 3 3 3 3 3 3 3 3 3 4 3 3 3 3 3 4 5 5 5 5 5 5 5 4 5 5 5 5
4 4 6 7 5 3 2 3 4 4 3 3 3 3 3 3 4 4 3 3 3 3 4 4 4 4 4 3 3 3 3 4 5 5 5 5 5 5 5 5 4 5 4 3
6 7 8 5 3 5 4 4 4 5 4 4 4 4 4 4 4 4 4 3 4 4 4 4 4 4 4 4 4 3 4 5 5 5 5 5 5 4 5 5 5 2 1 2
Wind_Direction
199 218 214 204 229 273 242 234 195 118 149 213 222 202 171 179 194 196 190 187 186 185 174 174 176 175 172 172 173 176 180 172 181 181 186 176 168 174 165 153 118 144 282 88
205 219 213 205 208 222 222 227 204 152 158 231 233 220 186 188 199 201 196 195 192 183 177 177 180 179 178 177 181 179 184 183 188 179 188 191 169 183 168 148 120 192 184 215
220 203 177 197 200 213 222 230 217 181 173 211 244 205 184 186 199 202 205 203 197 191 185 182 184 185 185 183 185 188 188 187 193 188 188 180 175 195 170 175 176 186 219 220
224 192 191 204 208 219 214 209 221 208 224 196 245 259 164 180 193 202 206 203 201 193 191 187 186 187 189 187 184 186 188 191 190 192 198 200 201 197 186 199 173 192 212 241
203 194 201 209 208 221 211 170 210 226 245 250 218 271 137 167 198 200 201 201 198 193 192 188 187 185 188 186 182 180 183 188 189 195 194 210 218 200 190 194 178 222 185 209
210 195 218 218 201 198 163 170 187 224 245 244 239 269 206 133 203 191 188 192 193 189 187 186 183 181 186 186 184 179 178 185 187 193 195 208 218 218 219 215 200 209 194 200
202 197 196 201 186 180 201 207 211 215 221 232 153 255 336 63 64 184 176 180 184 183 182 183 182 182 185 187 187 183 180 185 188 193 198 202 212 216 218 226 208 228 214 201
202 198 189 200 212 201 211 228 241 251 245 205 178 240 105 82 81 139 165 167 172 177 176 179 182 184 186 186 186 185 184 188 189 193 197 204 208 218 214 212 238 222 240 231
213 201 175 197 221 227 210 228 249 255 257 262 223 210 198 144 136 142 155 159 168 174 173 176 180 184 186 185 186 187 183 186 190 193 193 198 205 217 220 205 220 231 235 240
233 212 179 175 194 220 245 224 224 242 251 250 232 228 227 174 169 160 163 164 167 172 171 172 176 181 183 182 181 184 185 186 187 190 196 193 196 200 207 218 216 234 240 246
230 221 191 191 212 206 199 215 233 239 250 256 251 225 112 169 169 177 168 166 167 175 175 173 175 177 179 181 181 183 185 184 184 189 191 196 192 191 196 209 214 215 221 223
224 230 215 207 200 262 229 225 221 231 233 248 265 235 105 138 168 181 164 155 159 169 172 172 172 172 177 181 182 182 185 185 184 183 189 192 195 194 198 205 212 214 212 215
204 226 214 202 193 201 221 222 229 238 240 241 250 229 123 139 161 167 158 156 155 161 162 161 165 170 175 179 183 182 186 187 185 181 189 190 192 195 201 204 204 207 209 214
237 229 237 234 224 202 208 216 223 232 237 239 244 247 184 184 183 173 164 166 167 165 163 162 161 167 171 176 181 185 187 187 184 184 190 189 192 196 198 200 201 201 204 206
236 229 235 252 258 239 222 220 220 230 242 250 244 242 238 222 212 196 183 178 171 167 167 167 170 165 169 174 179 186 189 188 187 187 192 193 189 188 192 192 195 194 199 200
239 239 230 232 233 237 236 232 230 233 239 246 248 246 236 217 217 196 189 187 183 178 177 173 172 172 178 180 185 185 185 186 185 187 189 190 190 186 190 191 189 187 189 197
214 225 232 229 219 229 231 230 231 230 233 239 242 245 216 209 211 209 202 199 196 192 187 186 185 184 183 184 182 186 183 185 187 188 187 189 191 192 193 194 188 188 189 193
225 231 235 235 222 233 231 226 233 233 230 239 246 242 229 231 218 210 210 200 200 197 195 195 202 198 189 184 181 180 179 189 189 184 186 190 192 191 189 194 195 196 196 196
223 228 238 236 231 232 216 212 226 228 226 232 238 238 233 219 194 187 183 202 208 205 205 205 206 198 187 187 184 186 188 190 193 191 190 193 194 190 191 196 202 203 200 199
201 223 236 233 239 234 217 170 226 234 226 210 237 237 242 226 226 196 160 215 221 214 195 197 196 190 178 176 182 196 197 195 200 199 198 198 198 196 196 197 205 208 205 205
195 208 226 233 237 240 324 153 201 225 209 105 242 238 240 249 289 354 331 287 256 227 201 190 186 183 171 170 187 203 209 210 208 201 198 198 199 200 195 193 200 205 204 197
221 216 219 230 232 226 125 196 226 6 23 326 249 270 289 293 315 316 296 289 270 233 206 187 188 183 172 178 193 210 218 218 209 204 201 202 205 206 190 191 194 201 199 192
240 258 253 248 246 60 92 90 44 13 321 311 299 320 310 298 289 294 282 267 262 248 235 220 211 207 199 193 205 220 222 213 207 206 206 204 204 206 197 194 193 195 201 206
220 259 249 243 226 231 213 336 324 318 309 311 304 296 298 303 297 286 275 267 263 251 238 227 219 222 221 215 222 230 223 209 208 210 206 203 204 204 199 204 201 202 203 209
258 241 238 239 243 254 243 299 305 305 304 309 305 296 297 302 297 287 271 261 258 251 246 238 233 231 232 226 226 226 214 205 209 211 207 209 209 205 201 205 212 217 213 225
241 244 247 251 250 267 271 284 301 299 296 292 289 289 291 287 281 277 272 267 262 257 253 247 245 243 235 230 227 223 218 208 207 210 210 212 211 201 207 204 200 185 215 159